{"data":{"norad_id":67070,"epoch":"2026-05-25T00:28:39.764352Z","epoch_age_seconds":83990,"freshness":"FRESH","line1":"1 67070U 25296B   26145.01990468  .00004019  00000+0  20639-3 0  9995","line2":"2 67070  41.3594 249.8306 0016306  59.1272 301.1151 15.17447287 24758","mean_motion":15.17447287,"eccentricity":0.0016306,"inclination_deg":41.3594,"raan_deg":249.8306,"arg_perigee_deg":59.1272,"mean_anomaly_deg":301.1151,"bstar":0.00020639,"rev_number":2475,"period_min":94.896212365102,"perigee_km":502.32119410675,"apogee_km":524.79639242775,"semimajor_km":6891.6957932672,"source":"CELESTRAK","updated_at":"2026-05-25T13:38:06.703550Z"}}